Wind_Speed
12 12 12 12 13 14 14 14 13 14 14 13 13 14 13 13 13 12 12 13 13 13 13 13 13 14 14 14 15 15 16 16 17 17 18 18 18 18 18 18 18 18 18
12 12 12 13 13 13 14 14 13 13 14 14 13 14 13 13 13 13 14 13 14 14 14 14 14 14 15 16 16 17 17 18 18 19 19 19 19 19 20 20 20 20 20
14 14 14 13 13 13 14 14 14 14 14 14 14 14 14 13 13 14 14 14 15 14 15 15 16 16 16 17 17 18 19 19 19 19 19 20 20 20 21 21 21 21 22
14 15 15 14 14 13 13 14 15 15 14 15 15 15 14 14 15 15 16 16 16 17 17 17 17 17 18 18 18 19 20 20 20 20 20 21 21 21 22 22 23 24 24
16 16 16 15 14 15 15 15 16 16 16 16 16 16 16 16 16 17 17 17 17 17 18 19 19 19 19 19 20 21 21 21 21 22 22 22 23 23 23 24 25 25 26
16 17 16 16 15 15 16 16 16 16 16 16 16 16 16 16 17 17 18 18 19 19 19 19 20 20 21 21 22 22 22 22 23 23 23 24 25 24 25 25 26 27 27
16 16 16 16 16 16 17 16 17 16 16 16 16 16 15 16 17 19 20 20 20 20 20 20 21 21 22 23 23 23 24 24 25 25 25 26 26 26 27 28 28 28 28
18 17 17 17 18 17 17 17 17 16 17 17 17 16 16 17 18 19 21 21 21 21 22 22 22 23 23 23 24 25 25 25 26 27 27 28 28 29 29 30 30 31 31
19 19 18 18 18 18 18 17 17 17 17 17 16 17 17 18 19 20 21 21 21 22 23 23 24 25 25 26 26 27 27 27 28 29 29 30 30 31 31 31 32 32 33
19 19 19 19 19 18 18 18 18 18 18 17 17 17 18 19 19 20 20 21 22 22 23 24 25 27 28 28 28 29 29 29 30 31 31 31 32 32 33 33 34 34 34
18 18 18 19 18 18 18 18 18 17 17 17 17 17 18 19 20 20 20 21 22 23 23 24 25 27 28 28 28 29 29 30 31 31 31 31 32 32 33 34 35 35 35
18 17 17 17 18 18 18 18 18 18 18 18 19 19 19 19 20 20 21 22 23 23 24 25 26 27 28 28 29 29 30 30 31 31 32 32 32 33 34 35 36 36 37
18 19 18 18 18 18 19 19 19 19 20 21 21 21 21 22 22 22 23 23 23 24 26 26 27 27 28 29 30 30 30 31 31 31 32 33 34 34 34 35 36 36 37
19 20 20 19 19 19 19 20 20 21 22 22 23 23 24 24 24 24 24 25 26 26 26 27 28 28 29 30 30 30 30 30 31 32 33 35 36 36 36 37 37 37 38
19 19 20 20 20 20 20 21 21 21 22 23 24 25 25 25 26 26 25 26 27 27 27 28 29 30 31 31 31 31 32 33 34 34 35 35 36 37 37 37 38 39 40
20 19 20 20 20 20 21 21 21 22 23 24 24 24 25 25 25 25 26 27 27 28 28 29 30 31 31 32 32 33 34 34 35 35 36 37 37 37 37 38 39 40 41
20 20 20 21 21 21 21 21 21 22 23 23 23 24 25 25 25 25 26 27 28 28 28 29 30 31 32 33 33 34 34 34 34 35 36 36 37 37 38 39 40 41 42
21 20 20 20 20 20 20 20 20 21 22 22 23 24 25 25 26 26 26 27 27 28 28 29 30 31 31 32 33 33 33 33 34 35 35 36 36 37 38 40 41 42 43
21 20 19 19 19 19 19 19 20 21 22 22 23 24 25 26 27 27 27 27 28 28 29 30 30 30 31 31 32 32 33 34 34 35 35 36 37 38 39 39 40 41 42
21 20 20 19 19 19 19 20 20 21 21 22 23 24 25 26 26 26 26 27 27 28 29 29 29 30 30 31 32 32 34 34 35 35 36 36 37 37 38 39 40 41 41
20 19 19 19 19 19 20 20 21 22 23 23 24 24 25 25 26 26 27 27 27 28 28 29 29 30 32 32 33 34 35 36 37 36 37 37 38 39 40 40 41 41 41
19 19 18 19 19 21 21 22 22 22 23 23 24 24 25 26 27 27 28 28 29 29 29 30 31 32 34 36 36 36 37 38 38 38 39 39 40 41 41 41 42 42 42
19 19 19 20 21 21 22 22 23 23 24 24 25 25 26 27 28 29 29 29 30 30 31 33 34 35 36 36 37 37 38 38 38 39 40 40 41 41 41 42 42 43 42
19 20 20 21 22 22 23 23 24 24 25 25 26 27 27 28 29 29 30 30 31 32 33 34 35 36 36 36 37 38 38 38 39 40 40 40 40 41 41 42 42 41 40
20 21 21 22 22 23 24 24 24 24 25 25 26 27 27 28 28 29 29 30 31 32 33 34 35 36 36 37 37 38 38 39 39 40 41 41 41 41 41 40 40 40 40
21 21 22 22 23 24 25 25 25 24 24 25 26 26 27 28 28 29 30 31 31 32 33 34 34 35 36 37 37 37 38 39 39 40 40 40 40 40 39 39 39 40 39
Wind_Direction
270 274 271 272 268 269 271 271 271 269 272 273 273 272 273 270 270 271 272 269 268 273 273 276 278 277 274 275 279 282 283 284 286 285 284 286 287 288 289 287 287 286 284
270 273 274 274 271 268 269 271 272 272 272 272 273 274 273 269 269 271 272 270 270 272 273 275 277 278 277 278 280 282 284 284 284 284 284 285 285 286 288 287 286 286 285
271 273 278 278 277 271 267 269 271 272 271 270 271 274 272 269 268 270 270 272 270 270 273 275 277 277 279 280 281 282 284 283 284 283 284 284 283 285 288 287 285 285 285
275 276 277 278 277 274 273 273 272 272 271 270 272 272 271 268 266 267 268 273 271 271 274 275 277 276 277 279 280 282 283 283 284 284 284 284 284 285 286 286 285 285 284
274 278 277 274 275 276 275 276 274 272 272 272 272 269 267 267 268 268 269 271 272 273 275 275 277 278 278 278 281 283 283 281 282 283 283 283 285 285 285 285 284 285 284
276 276 276 273 273 275 276 276 276 273 271 270 270 269 267 267 269 270 271 271 272 274 275 275 278 280 279 281 281 281 282 282 281 282 282 283 285 284 284 285 285 285 284
275 274 272 271 272 274 274 278 277 273 269 270 270 268 268 271 273 274 273 272 275 275 274 276 279 281 282 283 282 281 282 281 280 280 282 284 284 282 283 284 284 284 284
272 269 268 271 273 273 273 275 276 273 272 274 271 268 270 272 275 278 277 275 274 274 275 278 281 282 282 282 282 282 283 282 280 280 281 282 282 282 283 284 285 285 284
271 266 268 269 272 272 268 270 273 274 275 275 272 270 271 272 275 281 281 277 275 274 275 278 279 280 282 283 282 282 283 282 282 282 282 283 285 285 285 284 285 285 286
270 266 266 266 269 268 267 269 271 273 274 274 273 271 271 274 277 281 283 280 277 277 278 279 280 280 280 281 281 282 283 282 282 283 284 285 285 286 285 284 284 285 286
270 266 264 264 266 267 268 270 270 270 271 273 273 272 274 275 277 281 282 283 281 280 280 281 281 281 281 282 283 283 285 285 285 286 286 286 286 287 287 286 285 286 287
270 266 265 264 266 265 266 268 269 268 269 272 273 274 276 277 279 281 282 283 284 283 281 281 283 283 283 283 284 284 286 286 287 288 288 289 289 289 289 288 288 287 288
269 267 267 264 267 266 265 265 268 269 270 270 272 275 278 279 281 283 284 285 285 284 282 282 284 285 286 287 287 286 287 288 288 288 288 289 291 291 292 292 291 289 289
268 268 267 266 265 266 267 268 268 269 272 273 273 275 278 280 281 283 285 285 285 284 283 283 285 286 287 287 287 288 290 291 291 291 291 292 293 293 293 292 291 290 290
269 267 265 265 266 267 270 270 271 272 274 276 276 278 278 280 282 283 284 285 286 285 286 286 287 289 289 288 288 290 292 293 293 293 293 294 295 294 294 293 292 292 293
269 268 266 266 267 268 271 273 273 273 274 275 276 277 278 280 280 281 282 284 286 287 288 288 289 290 290 290 290 292 293 294 294 295 295 295 295 295 294 294 294 293 293
266 267 267 268 269 271 273 274 275 275 275 276 277 278 279 280 281 283 284 285 287 288 290 290 291 292 293 293 292 293 295 295 295 296 297 297 297 297 297 296 296 296 295
262 264 267 267 269 272 274 274 275 276 277 277 278 279 280 282 284 285 286 288 290 291 293 294 294 294 294 294 295 296 295 295 296 298 299 300 300 299 299 299 299 298 298
261 262 263 266 269 272 274 275 276 277 277 278 281 282 283 283 285 287 289 291 292 293 294 295 295 295 295 296 297 297 298 298 298 300 301 301 301 301 301 301 301 300 300
262 263 265 267 271 274 276 278 280 282 282 284 285 287 286 285 286 288 289 290 292 293 295 296 297 297 297 298 298 299 300 300 300 301 301 302 302 303 303 303 303 302 302
263 265 267 268 271 275 278 281 282 283 285 286 287 289 288 288 289 290 291 293 294 295 297 298 298 298 299 299 300 299 300 300 301 301 302 303 303 303 304 304 305 305 305
262 265 267 270 274 278 281 282 284 285 287 289 290 290 290 290 291 292 293 294 294 295 296 296 297 299 300 300 300 299 300 301 301 301 302 303 304 305 306 306 306 305 305
262 265 269 272 276 278 280 282 284 286 288 290 291 292 291 292 293 294 295 295 296 297 298 298 298 300 301 300 300 301 302 302 303 303 304 305 305 305 305 305 305 305 306
266 270 274 277 278 278 281 283 285 286 289 291 291 291 291 292 294 294 295 295 297 298 297 297 298 299 301 300 301 302 303 304 305 304 304 305 305 306 306 305 306 306 305
268 272 275 278 281 283 283 285 287 288 289 291 292 292 292 293 294 294 294 297 299 299 299 299 300 301 302 302 302 304 305 306 307 307 307 307 307 307 307 306 306 306 307
269 272 275 278 282 285 287 287 288 288 290 291 291 292 292 294 295 295 296 298 299 300 301 302 302 302 302 303 304 306 307 308 308 308 308 308 308 308 308 308 308 308 308
Height
5878 5878 5878 5878 5878 5878 5878 5878 5878 5878 5878 5877 5877 5876 5876 5876 5876 5876 5876 5876 5877 5877 5877 5877 5877 5876 5876 5876 5876 5876 5875 5874 5874 5873 5872 5871 5870 5870 5868 5867 5866 5865 5864
5875 5875 5875 5875 5875 5874 5875 5875 5875 5874 5874 5874 5873 5873 5873 5873 5873 5873 5873 5873 5873 5873 5873 5873 5873 5873 5873 5872 5872 5872 5871 5870 5869 5868 5867 5867 5866 5865 5864 5863 5861 5860 5859
5873 5873 5872 5871 5871 5871 5872 5872 5871 5871 5871 5871 5870 5869 5869 5869 5870 5870 5870 5870 5870 5870 5870 5870 5869 5869 5868 5868 5867 5867 5866 5865 5864 5863 5862 5861 5861 5859 5859 5857 5856 5855 5854
5870 5869 5869 5869 5869 5869 5868 5868 5868 5868 5867 5867 5867 5866 5866 5866 5866 5866 5866 5866 5866 5866 5866 5865 5865 5864 5864 5863 5862 5862 5861 5860 5859 5858 5857 5856 5855 5854 5853 5852 5850 5849 5848
5866 5866 5866 5866 5866 5865 5865 5865 5864 5864 5864 5863 5863 5862 5862 5862 5862 5862 5862 5862 5862 5861 5861 5861 5860 5860 5859 5858 5857 5857 5855 5854 5853 5852 5851 5850 5849 5848 5847 5845 5844 5843 5841
5862 5862 5862 5862 5862 5862 5862 5861 5860 5860 5860 5859 5859 5858 5858 5858 5858 5858 5858 5857 5857 5856 5856 5855 5855 5854 5854 5853 5852 5851 5850 5848 5847 5846 5845 5844 5842 5841 5840 5838 5837 5836 5834
5858 5858 5858 5858 5858 5858 5857 5857 5856 5856 5855 5855 5855 5854 5854 5854 5853 5853 5853 5852 5851 5851 5850 5850 5849 5848 5848 5847 5846 5844 5843 5842 5841 5840 5839 5837 5836 5834 5833 5831 5829 5827 5826
5854 5854 5854 5854 5854 5854 5853 5853 5853 5852 5851 5851 5850 5850 5850 5850 5849 5848 5847 5846 5845 5845 5844 5844 5843 5842 5841 5840 5839 5838 5837 5835 5834 5833 5831 5830 5828 5827 5825 5823 5821 5820 5818
5850 5850 5850 5850 5849 5849 5849 5849 5848 5848 5847 5847 5846 5845 5845 5845 5844 5844 5842 5841 5840 5839 5838 5837 5837 5836 5835 5833 5832 5831 5830 5828 5826 5825 5823 5821 5820 5818 5816 5814 5812 5811 5809
5845 5845 5845 5844 5844 5844 5844 5844 5844 5843 5843 5842 5842 5841 5841 5840 5839 5839 5837 5836 5835 5834 5832 5831 5830 5829 5828 5826 5825 5823 5822 5820 5819 5817 5815 5813 5811 5809 5807 5805 5803 5801 5799
5839 5839 5839 5839 5839 5839 5839 5839 5839 5839 5839 5838 5837 5837 5836 5835 5834 5834 5832 5831 5829 5828 5826 5825 5824 5822 5821 5819 5818 5816 5814 5812 5810 5808 5806 5804 5802 5800 5797 5795 5793 5791 5789
5834 5834 5834 5834 5834 5834 5834 5834 5834 5834 5833 5833 5833 5832 5831 5830 5830 5828 5827 5825 5823 5822 5820 5819 5817 5816 5814 5812 5811 5809 5807 5805 5802 5800 5798 5795 5793 5790 5788 5785 5783 5780 5778
5829 5829 5829 5829 5829 5829 5829 5829 5829 5828 5828 5828 5828 5827 5826 5825 5824 5823 5821 5819 5817 5815 5813 5812 5811 5809 5807 5805 5803 5801 5799 5797 5794 5792 5789 5787 5784 5781 5778 5775 5773 5770 5767
5825 5824 5824 5824 5824 5824 5824 5823 5823 5823 5823 5822 5822 5821 5820 5819 5818 5816 5815 5813 5811 5809 5807 5805 5804 5802 5800 5798 5795 5793 5791 5788 5786 5783 5780 5778 5774 5771 5768 5765 5762 5759 5756
5820 5819 5819 5819 5819 5819 5818 5818 5817 5817 5817 5816 5815 5814 5813 5812 5811 5809 5808 5806 5804 5802 5801 5799 5797 5794 5792 5790 5787 5785 5782 5780 5777 5774 5771 5768 5764 5761 5757 5754 5751 5747 5744
5814 5814 5814 5813 5813 5813 5813 5812 5811 5811 5810 5809 5808 5807 5806 5805 5803 5802 5800 5799 5797 5795 5793 5791 5789 5786 5784 5781 5779 5776 5774 5770 5767 5764 5761 5757 5753 5750 5746 5743 5739 5735 5732
5809 5808 5808 5807 5807 5807 5806 5806 5805 5804 5803 5802 5802 5801 5799 5798 5796 5795 5793 5791 5789 5787 5785 5783 5781 5778 5775 5773 5770 5767 5764 5761 5757 5754 5750 5746 5743 5739 5735 5731 5727 5723 5719
5803 5803 5802 5802 5801 5801 5800 5799 5799 5798 5797 5796 5795 5794 5792 5791 5789 5788 5786 5784 5782 5780 5777 5775 5772 5769 5767 5764 5761 5757 5754 5751 5747 5744 5740 5736 5732 5728 5724 5720 5715 5711 5706
5797 5797 5797 5796 5796 5795 5794 5794 5793 5792 5791 5789 5788 5787 5785 5784 5782 5781 5778 5776 5774 5772 5769 5766 5764 5761 5758 5755 5752 5748 5745 5741 5738 5734 5730 5726 5722 5717 5713 5708 5704 5699 5694
5792 5791 5791 5791 5790 5790 5789 5788 5787 5786 5785 5783 5782 5780 5778 5777 5775 5773 5771 5769 5766 5764 5761 5758 5755 5752 5749 5746 5743 5739 5736 5732 5728 5724 5720 5716 5711 5707 5702 5697 5692 5687 5682
5786 5786 5786 5785 5785 5785 5784 5783 5781 5780 5778 5777 5775 5773 5772 5770 5768 5766 5764 5761 5759 5756 5753 5750 5747 5744 5741 5737 5734 5730 5726 5722 5718 5714 5709 5705 5700 5696 5691 5686 5681 5675 5670
5781 5781 5781 5780 5780 5779 5778 5777 5776 5774 5772 5770 5769 5767 5765 5763 5761 5759 5756 5754 5751 5748 5745 5742 5738 5735 5732 5728 5724 5720 5716 5712 5708 5703 5699 5694 5689 5684 5679 5674 5669 5664 5659
5775 5775 5775 5775 5774 5773 5772 5770 5769 5767 5766 5764 5762 5760 5758 5755 5753 5751 5748 5745 5742 5739 5736 5733 5729 5726 5722 5718 5714 5710 5706 5701 5697 5692 5688 5683 5678 5673 5668 5663 5657 5652 5647
5770 5769 5769 5768 5767 5767 5765 5764 5762 5760 5759 5757 5755 5752 5750 5748 5745 5742 5740 5737 5734 5730 5727 5723 5720 5716 5712 5708 5704 5699 5695 5690 5686 5681 5677 5672 5666 5661 5656 5651 5646 5641 5636
5763 5763 5763 5762 5761 5760 5758 5757 5755 5753 5751 5749 5747 5745 5742 5740 5737 5734 5731 5728 5725 5721 5717 5714 5710 5706 5702 5698 5694 5689 5685 5680 5675 5670 5665 5660 5655 5650 5645 5640 5635 5630 5624
5757 5757 5756 5755 5754 5753 5751 5749 5748 5746 5744 5742 5739 5737 5734 5732 5729 5726 5722 5719 5716 5712 5708 5704 5700 5696 5692 5688 5683 5679 5675 5670 5665 5660 5654 5649 5644 5639 5634 5629 5623 5618 5613